EWG72D EDDH-LOWS

Flight info

Callsign EWG72D
Flight time N/A
Altitude 29000
Route AMLUH2C/05 AMLUH M852 DENIX DCT ZUCKA DCT SODRO T703 ARBAX T108 OSTES T700 BADIT
Aircraft A319/M-SDE3FGHIRWY/LB1

Departure

Time 2026-04-20 17:04
Airport Hamburg Helmut Schmidt Airport (EDDH)

Arrival

Time N/A
Airport Salzburg Airport (LOWS)
Time Latitude Longitude Altitude Speed Heading
2026-04-20 16:43 53.63373 10.00344 61 ft 0 kts 86°
2026-04-20 16:51 53.63373 10.00342 61 ft 1 kts 86°
2026-04-20 16:52 53.63372 10.00318 61 ft 2 kts 86°
2026-04-20 16:52 53.63371 10.00292 61 ft 2 kts 86°
2026-04-20 16:52 53.63370 10.00267 61 ft 2 kts 86°
2026-04-20 16:52 53.63369 10.00243 61 ft 1 kts 86°
2026-04-20 16:53 53.63370 10.00230 61 ft 1 kts 135°
2026-04-20 16:53 53.63376 10.00225 61 ft 0 kts 182°
2026-04-20 16:53 53.63382 10.00225 61 ft 0 kts 177°
2026-04-20 16:55 53.63332 10.00186 61 ft 14 kts 216°
2026-04-20 16:56 53.63234 10.00177 61 ft 15 kts 176°
2026-04-20 16:56 53.63124 10.00190 61 ft 16 kts 175°
2026-04-20 16:56 53.63018 10.00129 61 ft 17 kts 213°
2026-04-20 16:56 53.62980 10.00086 61 ft 0 kts 212°
2026-04-20 16:57 53.62972 10.00079 61 ft 7 kts 212°
2026-04-20 16:57 53.62877 10.00038 61 ft 16 kts 197°
2026-04-20 16:58 53.62776 9.99936 61 ft 17 kts 207°
2026-04-20 16:58 53.62665 9.99831 61 ft 18 kts 216°
2026-04-20 16:58 53.62624 9.99631 61 ft 19 kts 260°
2026-04-20 16:58 53.62598 9.99407 61 ft 20 kts 259°
2026-04-20 16:59 53.62570 9.99170 61 ft 20 kts 259°
2026-04-20 16:59 53.62544 9.98925 61 ft 21 kts 258°
2026-04-20 16:59 53.62515 9.98672 61 ft 22 kts 259°
2026-04-20 16:59 53.62485 9.98417 61 ft 22 kts 258°
2026-04-20 17:00 53.62427 9.97889 61 ft 18 kts 264°
2026-04-20 17:00 53.62429 9.97855 61 ft 0 kts 291°
2026-04-20 17:01 53.62445 9.97821 61 ft 11 kts 317°
2026-04-20 17:01 53.62524 9.97780 61 ft 7 kts 46°
2026-04-20 17:02 53.62534 9.97803 61 ft 0 kts 51°
2026-04-20 17:03 53.62540 9.97816 61 ft 9 kts 51°
2026-04-20 17:03 53.62770 9.98281 62 ft 92 kts 51°
2026-04-20 17:03 53.63335 9.99403 157 ft 151 kts 52°
2026-04-20 17:04 53.63982 10.00720 1084 ft 147 kts 53°
2026-04-20 17:04 53.64613 10.01997 2102 ft 143 kts 53°
2026-04-20 17:04 53.65266 10.03349 2661 ft 157 kts 54°
2026-04-20 17:04 53.65934 10.04860 3294 ft 168 kts 56°
2026-04-20 17:05 53.66501 10.06649 3851 ft 183 kts 79°
2026-04-20 17:05 53.66326 10.08898 4343 ft 213 kts 114°
2026-04-20 17:05 53.65175 10.10642 4940 ft 245 kts 152°
2026-04-20 17:05 53.63445 10.11390 5614 ft 265 kts 162°
2026-04-20 17:06 53.61600 10.12054 6415 ft 274 kts 161°
2026-04-20 17:06 53.59770 10.12923 7411 ft 274 kts 156°
2026-04-20 17:06 53.58004 10.13989 8408 ft 272 kts 153°
2026-04-20 17:06 53.56295 10.15254 9392 ft 269 kts 148°
2026-04-20 17:07 53.54607 10.16597 10161 ft 277 kts 152°
2026-04-20 17:07 53.52757 10.17803 10713 ft 291 kts 154°
2026-04-20 17:07 53.50818 10.19077 11209 ft 306 kts 154°
2026-04-20 17:07 53.48803 10.20416 11728 ft 319 kts 153°
2026-04-20 17:08 53.46766 10.21873 12399 ft 325 kts 152°
2026-04-20 17:08 53.44632 10.23410 13192 ft 328 kts 152°
2026-04-20 17:08 53.42537 10.24898 13913 ft 332 kts 153°
2026-04-20 17:08 53.40393 10.26413 14608 ft 336 kts 153°
2026-04-20 17:09 53.38227 10.27941 15298 ft 339 kts 153°
2026-04-20 17:09 53.36034 10.29485 15969 ft 343 kts 153°
2026-04-20 17:09 53.33844 10.31025 16610 ft 347 kts 153°
2026-04-20 17:09 53.31606 10.32597 17243 ft 351 kts 153°
2026-04-20 17:10 53.29268 10.33968 17848 ft 358 kts 162°
2026-04-20 17:10 53.26826 10.34848 18472 ft 363 kts 165°
2026-04-20 17:10 53.24331 10.35636 19065 ft 366 kts 166°
2026-04-20 17:10 53.21812 10.36444 19654 ft 370 kts 165°
2026-04-20 17:11 53.19270 10.37290 20249 ft 373 kts 165°
2026-04-20 17:11 53.16739 10.38154 20919 ft 373 kts 165°
2026-04-20 17:11 53.14185 10.39042 21533 ft 375 kts 165°
2026-04-20 17:11 53.11610 10.39948 22005 ft 379 kts 165°
2026-04-20 17:12 53.09071 10.40846 22298 ft 381 kts 164°
2026-04-20 17:12 53.06436 10.41779 22808 ft 385 kts 164°
2026-04-20 17:12 53.03837 10.42699 23372 ft 387 kts 164°
2026-04-20 17:12 53.01208 10.43631 23885 ft 390 kts 164°
2026-04-20 17:13 52.98549 10.44574 24369 ft 393 kts 165°
2026-04-20 17:13 52.95842 10.45533 24860 ft 396 kts 165°
2026-04-20 17:13 52.93157 10.46482 25336 ft 399 kts 165°
2026-04-20 17:13 52.90451 10.47438 25805 ft 401 kts 165°
2026-04-20 17:14 52.87694 10.48407 26248 ft 404 kts 165°
2026-04-20 17:14 52.84906 10.49380 26690 ft 406 kts 165°
2026-04-20 17:14 52.82145 10.50344 27120 ft 409 kts 165°
2026-04-20 17:14 52.79357 10.51319 27531 ft 411 kts 165°
2026-04-20 17:15 52.76534 10.52305 27943 ft 414 kts 165°
2026-04-20 17:15 52.73726 10.53287 28349 ft 416 kts 165°
2026-04-20 17:15 52.70880 10.54282 28748 ft 418 kts 165°
2026-04-20 17:15 52.68041 10.55273 29037 ft 422 kts 165°
2026-04-20 17:16 52.65159 10.56280 29160 ft 431 kts 165°
2026-04-20 17:16 52.62186 10.57317 29162 ft 442 kts 165°
2026-04-20 17:16 52.59128 10.58383 29167 ft 453 kts 165°
2026-04-20 17:17 52.52802 10.60579 29168 ft 472 kts 165°
2026-04-20 17:17 52.46274 10.62836 29167 ft 486 kts 165°
2026-04-20 17:18 52.39627 10.65126 29164 ft 489 kts 166°
2026-04-20 17:18 52.32945 10.67452 29162 ft 490 kts 166°
2026-04-20 17:19 52.26271 10.69762 29162 ft 490 kts 166°
2026-04-20 17:19 52.19619 10.72043 29155 ft 490 kts 166°
2026-04-20 17:20 52.12909 10.74334 29149 ft 492 kts 167°
2026-04-20 17:20 52.06220 10.76608 29146 ft 492 kts 166°
2026-04-20 17:21 51.99504 10.78886 29145 ft 492 kts 167°
2026-04-20 17:21 51.92769 10.81164 29144 ft 492 kts 167°
2026-04-20 17:22 51.86096 10.83410 29134 ft 493 kts 167°
2026-04-20 17:22 51.79375 10.85663 29127 ft 492 kts 167°
2026-04-20 17:23 51.72705 10.87909 29121 ft 493 kts 166°
2026-04-20 17:23 51.66134 10.91000 29122 ft 492 kts 158°
2026-04-20 17:24 51.59901 10.95464 29125 ft 490 kts 152°
2026-04-20 17:24 51.53780 11.00310 29122 ft 491 kts 152°
2026-04-20 17:25 51.47676 11.05125 29125 ft 491 kts 152°
2026-04-20 17:25 51.41573 11.09916 29124 ft 491 kts 152°
2026-04-20 17:26 51.35408 11.14737 29124 ft 491 kts 152°
2026-04-20 17:26 51.29280 11.19512 29119 ft 491 kts 152°
2026-04-20 17:27 51.23147 11.24277 29119 ft 491 kts 153°
2026-04-20 17:27 51.17019 11.29022 29112 ft 491 kts 152°
2026-04-20 17:28 51.10896 11.33751 29113 ft 491 kts 153°
2026-04-20 17:28 51.04750 11.38485 29104 ft 490 kts 152°
2026-04-20 17:29 50.98642 11.43175 29107 ft 489 kts 153°
2026-04-20 17:29 50.92527 11.47857 29103 ft 491 kts 153°
2026-04-20 17:30 50.86324 11.52582 29097 ft 492 kts 153°
2026-04-20 17:30 50.80144 11.57263 29094 ft 494 kts 153°
2026-04-20 17:31 50.73961 11.61948 29100 ft 495 kts 152°
2026-04-20 17:31 50.67773 11.66639 29094 ft 496 kts 153°
2026-04-20 17:32 50.61402 11.70849 29087 ft 498 kts 161°
2026-04-20 17:32 50.54812 11.74105 29084 ft 499 kts 162°
2026-04-20 17:33 50.48159 11.77401 29086 ft 500 kts 162°
2026-04-20 17:33 50.41526 11.80767 29085 ft 501 kts 161°
2026-04-20 17:34 50.34909 11.84156 29083 ft 502 kts 161°